Regional Weather Roundup
Issued by NWS

Home | Current Version | Previous Version | Graphics & Text | Print | Product List | Glossary On
Versions: 1 2 3 4 5 6 7 8 9 10 11 12 13 14 15 16 17 18 19 20 21 22 23 24 25 26 27 28 29 30 31 32 33 34 35 36 37 38 39 40 41 42 43 44 45 46 47 48 49 50
000
ASUS44 KMEG 280310
RWRTN
TENNESSEE HOURLY STATE WEATHER ROUNDUP
NATIONAL WEATHER SERVICE MEMPHIS TN
1000 PM CDT TUE SEP 27 2016

TNZ002-004-019-021-049-052-054-088>092-280400-
WEST TENNESSEE

CITY           SKY/WX    TMP DP  RH WIND       PRES   REMARKS
MEMPHIS INTL   PTCLDY    64  50  60 S3        29.96S
NWS MEMPHIS      N/A     58 N/A N/A MISG        N/A
JACKSON          N/A    N/A N/A N/A MISG      29.96S
DYERSBURG      CLEAR    N/A N/A N/A MISG        N/A
UNION CITY     CLEAR     57  52  82 CALM      29.93S
PARIS          CLEAR     55  46  71 CALM      29.95S
HUNTINGDON     CLOUDY    57  52  82 CALM      29.94S
LEXINGTON      CLEAR     54  54 100 CALM      29.95S
$$

TNZ008-025-027-028-033-062-065-066-280400-
NORTH MIDDLE TENNESSEE

CITY           SKY/WX    TMP DP  RH WIND       PRES   REMARKS
NASHVILLE      CLEAR     57  49  74 S5        29.96R
PORTLAND       CLEAR     55  50  82 S3        29.95S
CLARKSVILLE    CLEAR     55  51  86 CALM      29.93S
SMYRNA         CLEAR     56  50  80 CALM      29.96S
COOKEVILLE     CLEAR     48  46  93 CALM      29.95S
GALLATIN       CLEAR     55  52  88 CALM      29.97S
CROSSVILLE     CLEAR     52  45  77 CALM      29.99S
$$

TNZ061-075-076-078-094-096-097-280400-
SOUTH MIDDLE TENNESSEE

CITY           SKY/WX    TMP DP  RH WIND       PRES   REMARKS
FAYETTEVILLE   CLOUDY    63  46  55 CALM      29.97R
TULLAHOMA      CLEAR     52  45  76 CALM      29.98S
WINCHESTER     CLEAR     54  50  87 CALM      29.98R
MCMINNVILLE    CLEAR     52  48  87 CALM      29.97S
COLUMBIA       CLEAR    N/A N/A N/A CALM      29.95S
SHELBYVILLE    CLEAR     54  50  87 E3        29.97S
$$

TNZ017-018-042-046-047-280400-
NORTHEAST TENNESSEE

CITY           SKY/WX    TMP DP  RH WIND       PRES   REMARKS
TRI CITIES     CLEAR     60  59  96 CALM      29.95R
ELIZABETHTON   MOCLDY    61  61 100 CALM      29.95R
$$

TNZ012-013-036-069-073-074-280400-
CENTRAL EAST TENNESSEE

CITY           SKY/WX    TMP DP  RH WIND       PRES   REMARKS
KNOXVILLE      PTCLDY    69  59  70 N3        29.92R
OAK RIDGE      CLEAR     61  51  70 CALM      29.95R
DOWNTOWN KNOXV CLEAR     63  61  94 CALM      29.93R
GATLINBURG     CLEAR     64  61  88 CALM      29.93R
MORRISTOWN     MOCLDY    61  55  82 CALM      29.93S
JACKSBORO      CLEAR     63  43  48 SW6       29.98S
$$

TNZ083-085-099-280400-
SOUTHEAST TENNESSEE

CITY           SKY/WX    TMP DP  RH WIND       PRES   REMARKS
CHATTANOOGA    PTCLDY    67  55  65 NW5       29.95R
$$

SKY/WX REPORTED AS FAIR MEANS FEW OR NO CLOUDS BELOW
12 THOUSAND FEET.





USA.gov is the U.S. government's official web portal to all federal, state and local government web resources and services.